Probability
0 0 0 0 0 0 0 0 0 0 0 0 0 0 0 0 0 0 0 0 0 0 0 0 0 0 0 0 0 0 0 0 0 0 0 0 0 0 0 0 0 0 0
0 0 0 0 0 0 0 0 0 0 0 0 0 0 0 0 0 0 0 0 0 0 0 0 0 0 0 0 0 0 0 0 0 0 0 0 0 0 0 0 0 0 0
0 0 0 0 0 0 0 0 0 0 0 0 0 0 0 0 0 0 0 0 0 0 0 0 0 0 0 0 0 0 0 0 0 0 0 0 0 0 0 0 0 0 0
0 0 0 0 0 0 0 0 0 0 0 0 0 0 0 0 0 0 0 0 0 0 0 0 0 0 0 0 0 0 0 0 0 0 0 0 0 0 0 0 0 0 0
0 0 0 0 0 0 0 0 0 0 0 0 0 0 0 0 0 0 0 0 0 0 0 0 0 0 0 0 0 0 0 0 0 0 0 0 0 0 0 0 0 0 0
0 0 0 0 0 0 0 0 0 0 0 0 0 0 0 0 0 0 0 0 0 0 0 0 0 0 0 0 0 0 0 0 0 0 0 0 0 0 0 0 0 0 0
0 0 0 0 0 0 0 0 0 0 0 0 0 0 0 0 0 0 0 0 0 0 0 0 0 0 0 0 0 0 0 0 0 0 0 0 0 0 0 0 0 0 0
0 0 0 0 0 0 0 0 0 0 0 0 0 0 0 0 0 0 0 0 0 0 0 0 0 0 0 0 0 0 0 0 0 0 0 0 0 0 0 0 0 0 0
0 0 0 0 0 0 0 0 0 0 0 0 0 0 0 0 0 0 0 0 0 0 0 0 0 0 0 0 0 0 0 0 0 0 0 0 0 0 0 0 0 0 0
0 0 0 0 0 0 0 0 0 0 0 0 0 0 0 0 0 0 0 0 0 0 0 0 0 0 0 0 0 0 0 0 0 0 0 0 0 0 0 0 0 0 0
0 0 0 0 0 0 0 0 0 0 0 0 0 0 0 0 0 0 0 0 0 0 0 0 0 0 0 0 0 0 0 0 0 0 0 0 0 0 0 0 0 0 0
0 0 0 0 0 0 0 0 0 0 0 0 0 0 0 0 0 0 0 0 0 0 0 0 0 0 0 0 0 0 0 0 0 0 0 0 0 0 0 0 0 0 0
0 0 0 0 0 0 0 0 0 0 0 0 0 0 0 0 0 0 0 0 0 0 0 0 0 0 0 0 0 0 0 0 0 0 0 0 0 0 0 0 0 0 0
0 0 0 0 0 0 0 0 0 0 0 0 0 0 0 0 0 0 0 0 0 0 0 0 0 0 0 0 0 0 0 0 0 0 0 0 0 0 0 0 0 0 0
0 0 0 0 0 0 0 0 0 0 0 0 0 0 0 0 0 0 0 0 0 0 0 0 0 0 0 0 0 0 0 0 0 0 0 0 0 0 0 0 0 0 0
0 0 0 0 0 0 0 0 0 0 0 0 0 0 0 0 0 0 0 0 0 0 0 0 0 0 0 0 0 0 0 0 0 0 0 0 0 0 0 0 0 0 0
0 0 0 0 0 0 0 0 0 0 0 0 0 0 0 0 0 0 0 0 0 0 0 0 0 0 0 0 0 0 0 0 0 0 0 0 0 0 0 0 0 0 0
0 0 0 0 0 0 0 0 0 0 0 0 0 0 0 0 0 0 0 0 0 0 0 0 0 0 0 0 0 0 0 0 0 0 0 0 0 0 0 0 0 0 0
0 0 0 0 0 0 0 0 0 0 0 0 0 0 0 0 0 0 0 0 0 0 0 0 0 0 0 0 0 0 0 0 0 0 0 0 0 0 0 0 0 0 0
0 0 0 0 0 0 0 0 0 0 0 0 0 0 0 0 0 0 0 0 0 0 0 0 0 0 0 0 0 0 0 0 0 0 0 0 0 0 0 0 0 0 0
0 0 0 0 0 0 0 0 0 0 0 0 0 0 0 0 0 0 0 0 0 0 0 0 0 0 0 0 0 0 0 0 0 0 0 0 0 0 0 0 0 0 0
0 0 0 0 0 0 0 0 0 0 0 0 0 0 0 0 0 0 0 0 0 0 0 0 0 0 0 0 0 0 0 0 0 0 0 0 0 0 0 0 0 0 0
0 0 0 0 0 0 0 0 0 0 0 0 0 0 0 0 0 0 0 0 0 0 0 0 0 0 0 0 0 0 0 0 0 0 0 0 0 0 0 0 0 0 0
0 0 0 0 0 0 0 0 0 0 0 0 0 0 0 0 0 0 0 0 0 0 0 0 0 0 0 0 0 0 0 0 0 0 0 0 0 0 0 0 0 0 0
0 0 0 0 0 0 0 0 0 0 0 0 0 0 0 0 0 0 0 0 0 0 0 0 0 0 0 0 0 0 0 0 0 0 0 0 0 0 0 0 0 0 0
0 0 0 0 0 0 0 0 0 0 0 0 0 0 0 0 0 0 0 0 0 0 0 0 0 0 0 0 0 0 0 0 0 0 0 0 0 0 0 0 0 0 0
Wind_Speed
5 5 6 7 6 6 6 5 5 6 4 3 2 3 3 2 2 3 4 4 3 3 2 2 3 2 1 2 2 2 3 4 2 4 6 6 6 8 8 6 6 8 8
5 6 5 5 6 4 3 4 5 5 3 1 1 1 2 2 2 3 3 4 4 5 4 3 3 2 2 2 1 2 2 3 4 4 3 5 7 8 8 9 9 8 6
11 8 6 5 5 4 2 2 3 4 4 4 3 3 3 3 3 3 3 4 4 3 3 4 4 3 2 2 2 1 2 3 3 6 5 4 5 3 4 8 9 9 7
9 9 8 6 6 5 3 1 2 3 3 4 4 3 1 1 2 3 4 5 4 4 4 4 3 2 1 1 2 3 2 3 3 3 5 8 6 4 5 3 6 8 9
11 10 9 8 7 6 5 3 0 1 2 3 3 2 2 2 2 2 4 5 5 4 3 3 3 2 1 1 1 2 2 2 3 3 3 3 3 6 5 3 2 4 6
9 9 8 6 5 5 4 3 2 3 2 1 2 2 3 4 4 4 4 4 4 4 4 2 1 1 2 2 2 3 3 3 3 4 4 2 2 4 5 9 9 8 3
8 8 7 6 6 6 6 4 5 5 4 3 4 3 4 4 5 5 3 3 3 3 5 5 3 2 3 4 4 4 4 4 4 5 4 3 4 3 5 9 6 5 4
7 7 8 8 7 7 7 6 6 4 3 4 5 4 3 2 3 3 3 3 3 4 5 5 5 6 5 5 5 4 5 5 6 6 6 4 4 3 3 5 4 4 5
4 6 7 8 8 7 7 6 5 2 1 3 4 5 4 3 3 4 4 4 4 5 6 7 7 7 6 6 6 5 7 6 6 6 6 4 4 4 4 3 4 6 6
5 7 9 8 7 6 4 3 4 3 3 4 4 4 6 7 6 7 7 7 7 7 8 8 8 8 7 7 6 5 7 6 6 5 6 5 4 4 4 3 4 5 7
7 8 9 9 8 5 5 4 3 5 5 6 6 8 8 8 8 7 8 8 8 9 8 8 8 8 7 7 6 7 7 7 7 5 6 6 5 3 4 3 4 4 5
7 8 11 11 6 6 5 4 4 6 7 6 6 7 6 7 7 7 8 8 9 9 9 9 8 8 8 7 7 8 8 7 7 7 6 6 3 3 3 3 4 4 5
8 11 12 10 8 7 5 4 6 7 6 6 6 6 6 6 5 6 7 8 9 9 8 7 7 8 8 7 7 7 9 8 7 6 5 4 2 2 2 3 4 4 5
11 13 7 6 7 8 6 5 6 5 6 7 6 5 5 5 5 5 6 8 10 10 9 8 8 8 7 6 5 7 7 6 4 3 2 2 2 2 3 3 4 5 5
10 9 5 9 9 8 6 5 5 6 7 5 4 3 3 4 5 6 6 7 8 9 9 10 9 8 6 5 8 7 7 7 6 5 4 3 5 6 6 6 5 4 5
5 5 7 9 9 8 6 5 5 4 4 3 3 4 4 5 6 7 8 7 7 8 7 9 8 7 6 11 14 10 7 8 7 7 8 6 6 7 10 12 14 13 10
7 11 9 8 7 6 4 5 4 4 4 5 5 4 4 6 6 7 8 7 7 6 6 9 8 9 11 17 18 16 9 8 8 8 8 9 9 11 8 11 14 15 19
12 9 6 5 4 4 6 5 5 5 5 5 5 5 5 5 6 7 8 8 7 7 7 8 10 10 13 18 18 15 8 7 7 7 7 7 8 10 14 12 12 12 12
6 6 4 1 3 5 5 5 5 5 5 5 5 5 5 5 5 6 7 7 6 6 7 8 9 10 11 17 17 14 7 7 7 6 7 9 9 16 21 15 13 13 13
10 9 5 1 3 4 4 5 5 6 6 6 6 5 6 6 5 5 6 6 6 6 6 5 7 10 10 16 19 16 8 8 8 7 8 15 17 23 24 18 14 14 15
6 8 7 5 3 3 3 5 6 6 6 6 5 5 6 6 5 5 6 6 5 6 6 6 6 7 10 14 20 19 10 9 9 8 8 10 21 24 24 22 15 17 20
10 9 7 6 5 4 3 5 6 6 6 6 5 5 6 6 6 5 5 5 5 5 5 5 4 4 7 13 18 21 17 15 10 9 9 11 23 24 23 19 21 26 21
8 8 8 7 6 4 3 4 4 5 5 5 5 5 5 5 6 5 5 4 4 4 4 4 4 4 5 8 16 18 20 18 13 11 16 19 21 19 15 19 22 18 11
9 8 8 7 5 5 5 4 4 5 5 4 4 5 5 6 6 5 4 4 4 4 4 5 5 5 5 6 7 7 9 13 12 10 12 16 14 13 13 14 12 9 10
7 7 6 6 4 5 5 4 5 5 4 3 4 4 4 5 4 4 4 4 4 4 4 3 4 5 6 10 15 13 10 9 12 12 8 8 8 9 9 9 10 10 11
7 7 7 5 4 4 4 4 5 4 4 4 4 4 3 3 3 3 5 8 9 11 11 10 8 7 11 17 18 19 18 17 16 9 7 8 9 9 10 11 12 12 12
Wind_Direction
188 158 146 135 111 62 34 18 7 355 354 360 4 345 324 324 321 307 298 296 306 319 318 302 287 287 271 273 273 261 263 261 244 254 261 255 245 241 236 232 234 231 223
170 175 155 119 104 94 47 16 11 2 3 346 300 263 294 322 337 344 353 336 305 293 295 304 308 315 314 306 280 212 221 229 208 243 273 272 256 234 233 230 230 231 225
174 171 155 141 125 109 81 21 6 14 21 18 5 2 358 350 355 352 346 342 337 328 308 288 283 299 335 343 345 307 280 276 231 217 236 253 262 302 246 234 232 229 222
171 170 164 159 150 155 170 152 19 16 20 30 37 26 355 311 306 306 316 323 341 351 350 340 328 301 330 339 331 333 308 296 292 272 244 249 231 247 280 298 276 252 240
176 173 175 169 158 161 181 193 208 337 6 22 30 17 323 272 280 294 317 320 321 332 342 351 348 317 267 244 272 302 299 271 274 274 279 284 256 242 253 263 318 313 280
181 178 177 157 154 168 197 208 214 244 256 300 323 325 292 287 299 308 317 313 306 305 311 322 317 255 258 260 251 244 244 241 241 260 272 263 279 274 256 246 228 227 215
180 173 168 165 173 194 212 213 212 241 262 292 293 291 288 286 292 290 282 300 298 295 306 319 310 281 262 257 254 248 247 239 235 247 256 248 242 255 279 281 263 210 191
187 182 182 182 194 204 209 208 211 236 301 302 294 284 281 275 274 270 274 271 266 277 283 288 286 279 270 262 256 250 255 245 244 248 246 253 259 253 256 268 263 247 231
217 219 211 205 204 206 202 200 185 170 313 319 301 294 316 330 314 304 296 286 285 279 284 287 285 282 278 265 254 246 255 254 254 252 250 240 248 255 256 241 241 255 264
246 237 234 227 216 205 186 170 141 115 51 13 357 3 10 6 358 355 347 338 328 326 326 316 304 295 287 277 263 254 259 256 254 245 254 254 246 253 261 242 233 231 257
255 258 253 235 212 181 155 133 100 79 59 40 30 36 29 25 23 18 5 353 348 348 342 328 318 306 293 284 276 267 266 262 261 252 244 256 260 252 267 265 247 238 237
261 259 251 237 199 162 135 122 102 85 66 51 42 41 37 28 19 5 354 348 347 341 332 328 323 319 314 306 291 279 273 259 255 254 248 256 265 281 285 285 271 263 253
283 283 271 223 176 145 125 111 81 70 65 60 53 40 25 16 1 349 340 341 333 321 314 320 322 322 318 318 315 301 284 268 255 249 236 241 224 265 269 280 283 279 277
276 286 270 172 136 113 106 87 74 72 67 57 51 34 19 359 345 335 337 340 329 323 321 317 313 308 302 309 344 342 325 306 302 299 271 261 254 256 266 262 264 276 278
282 288 169 135 114 98 85 75 73 65 61 64 62 38 13 354 341 332 337 335 329 330 333 324 320 316 320 356 20 20 3 14 13 7 354 334 304 302 307 304 285 273 273
344 18 118 114 106 100 87 74 66 67 74 71 50 24 14 3 354 343 346 337 321 321 327 318 324 330 353 10 20 32 23 23 14 3 350 334 306 305 315 316 310 301 290
92 87 67 62 65 66 91 98 81 53 46 35 24 14 1 5 355 348 344 330 319 323 337 335 352 9 19 22 29 33 24 21 11 4 352 342 344 335 316 309 307 299 291
30 39 79 99 105 102 75 59 54 48 44 23 5 1 4 350 355 354 344 338 341 349 357 5 14 25 16 14 19 26 20 17 358 345 336 330 330 329 324 316 304 295 290
45 20 3 13 73 63 71 76 62 53 41 14 354 348 346 331 348 356 343 344 350 8 10 17 20 24 8 4 10 18 5 360 344 329 326 335 333 326 325 318 307 302 294
174 169 158 108 53 59 66 72 57 39 20 356 341 344 344 326 338 6 354 350 6 16 6 9 25 19 5 356 358 9 2 356 346 339 345 343 337 332 330 324 314 305 296
163 147 138 121 76 34 67 74 52 24 350 340 343 348 344 329 2 19 14 4 13 14 9 7 7 9 3 353 351 352 358 351 343 336 336 334 332 332 329 325 315 302 301
158 152 138 115 77 33 43 64 44 4 345 348 356 351 345 347 6 22 16 13 7 9 4 352 345 354 355 348 344 342 343 345 343 332 326 328 328 329 329 325 319 319 316
147 140 131 113 100 77 44 57 25 359 353 360 356 351 353 8 6 7 11 6 3 349 345 340 337 340 347 333 327 335 342 341 339 328 331 334 330 330 327 324 328 329 322
140 134 130 123 112 86 58 27 24 5 1 5 355 2 10 20 10 4 2 4 355 339 342 342 336 333 333 313 308 326 338 343 335 333 340 333 330 328 327 327 326 323 316
103 116 116 104 102 86 59 16 23 16 2 7 5 13 27 19 4 356 354 358 343 343 342 322 318 320 319 318 333 337 337 336 334 343 341 330 331 331 330 326 324 321 319
105 99 96 105 104 81 54 20 19 16 11 18 18 11 24 6 2 353 353 359 358 357 357 346 336 325 318 326 336 334 338 338 344 347 334 331 332 328 327 325 323 320 317